• In Czech Republic
  • List of Countries
  • For 7 days
  • Water Temperature
  • Satellite Maps
  • Weather Map
  • Weather Widgets
  • user-avatar
    Login

    Hourly Weather Solden

    Today, 22 October, Sunday

    Time Temperature Precipitation Wind Pressure Humidity
    00:00 +1°C° 0 mm 1 mps 582 mmHg 80%
    01:00 +2°C° 0 mm 1 mps 582 mmHg 85%
    02:00 +2°C° 0.4 mm 1 mps 582 mmHg 86%
    03:00 +2°C° 0.4 mm 1 mps 582 mmHg 88%
    04:00 +2°C° 0.4 mm 1 mps 582 mmHg 89%
    05:00 +2°C° 0.8 mm 1 mps 581 mmHg 90%
    06:00 +2°C° 0.8 mm 1 mps 581 mmHg 90%
    07:00 +1°C° 0 mm 1 mps 581 mmHg 88%
    08:00 +2°C° 0.5 mm 1 mps 581 mmHg 85%
    09:00 +2°C° 0.5 mm 2 mps 581 mmHg 83%
    10:00 +2°C° 0.5 mm 2 mps 581 mmHg 80%
    11:00 +2°C° 0.9 mm 2 mps 581 mmHg 80%
    12:00 +2°C° 0.9 mm 2 mps 580 mmHg 81%
    13:00 +1°C° 0 mm 2 mps 580 mmHg 80%
    14:00 -1°C° 0.8 mm 2 mps 579 mmHg 81%
    15:00 -1°C° 0.8 mm 3 mps 579 mmHg 81%
    16:00 -2°C° 0.8 mm 3 mps 579 mmHg 81%
    17:00 -4°C° 0.5 mm 3 mps 579 mmHg 82%
    18:00 -4°C° 0.5 mm 3 mps 579 mmHg 82%
    19:00 -5°C° 0.5 mm 3 mps 579 mmHg 83%
    20:00 -5°C° 0.2 mm 3 mps 579 mmHg 82%
    21:00 -6°C° 0.2 mm 3 mps 578 mmHg 81%
    22:00 -6°C° 0.2 mm 3 mps 578 mmHg 81%
    23:00 -6°C° 0.1 mm 3 mps 578 mmHg 81%

    Tomorrow, 23 October, Monday

    Time Temperature Precipitation Wind Pressure Humidity
    00:00 -6°C° 0.1 mm 3 mps 578 mmHg 81%
    01:00 -6°C° 0.1 mm 3 mps 579 mmHg 81%
    02:00 -7°C° 0.1 mm 3 mps 578 mmHg 81%
    03:00 -7°C° 0.1 mm 3 mps 578 mmHg 82%
    04:00 -7°C° 0.1 mm 3 mps 578 mmHg 83%
    05:00 -8°C° 0.1 mm 3 mps 578 mmHg 83%
    06:00 -8°C° 0.1 mm 3 mps 578 mmHg 83%
    07:00 -8°C° 0.1 mm 3 mps 578 mmHg 83%
    08:00 -6°C° 0.1 mm 3 mps 579 mmHg 77%
    09:00 -5°C° 0.1 mm 3 mps 580 mmHg 71%
    10:00 -2°C° 0.1 mm 3 mps 581 mmHg 65%
    11:00 -1°C° 0.1 mm 3 mps 581 mmHg 64%
    12:00 -1°C° 0.1 mm 3 mps 581 mmHg 62%
    13:00 -1°C° 0.1 mm 4 mps 582 mmHg 61%
    14:00 -1°C° 0.1 mm 3 mps 582 mmHg 63%
    15:00 -1°C° 0.1 mm 3 mps 582 mmHg 65%
    16:00 -1°C° 0.1 mm 3 mps 582 mmHg 67%
    17:00 -4°C° 0.1 mm 3 mps 581 mmHg 71%
    18:00 -5°C° 0.1 mm 3 mps 581 mmHg 76%
    19:00 -6°C° 0.1 mm 3 mps 581 mmHg 80%
    20:00 -6°C° 0.1 mm 3 mps 581 mmHg 81%
    21:00 -6°C° 0.1 mm 3 mps 582 mmHg 81%
    22:00 -6°C° 0.1 mm 3 mps 582 mmHg 81%
    23:00 -6°C° 0.1 mm 3 mps 582 mmHg 81%

    Day after tomorrow, 24 October, Tuesday

    Time Temperature Precipitation Wind Pressure Humidity
    00:00 -6°C° 0.1 mm 3 mps 582 mmHg 82%
    01:00 -6°C° 0.1 mm 3 mps 582 mmHg 82%
    02:00 -6°C° 0 mm 3 mps 582 mmHg 82%
    03:00 -7°C° 0 mm 3 mps 582 mmHg 83%
    04:00 -7°C° 0 mm 3 mps 582 mmHg 83%
    05:00 -7°C° 0 mm 3 mps 582 mmHg 83%
    06:00 -7°C° 0 mm 3 mps 583 mmHg 84%
    07:00 -7°C° 0 mm 3 mps 583 mmHg 84%
    08:00 -4°C° 0 mm 3 mps 584 mmHg 79%
    09:00 -1°C° 0 mm 3 mps 585 mmHg 73%
    10:00 +1°C° 0 mm 3 mps 586 mmHg 68%
    11:00 +3°C° 0 mm 2 mps 587 mmHg 67%
    12:00 +4°C° 0 mm 2 mps 587 mmHg 66%
    13:00 +5°C° 0 mm 2 mps 587 mmHg 65%
    14:00 +5°C° 0 mm 2 mps 587 mmHg 68%
    15:00 +4°C° 0 mm 2 mps 587 mmHg 71%
    16:00 +4°C° 0 mm 2 mps 587 mmHg 75%
    17:00 +2°C° 0 mm 2 mps 586 mmHg 79%
    18:00 -1°C° 0 mm 2 mps 586 mmHg 83%
    19:00 -2°C° 0 mm 2 mps 585 mmHg 88%
    20:00 -3°C° 0 mm 2 mps 585 mmHg 86%
    21:00 -3°C° 0 mm 2 mps 586 mmHg 85%
    22:00 -3°C° 0 mm 2 mps 586 mmHg 84%
    23:00 -3°C° 0 mm 2 mps 586 mmHg 81%

    25 October, Wednesday

    Time Temperature Precipitation Wind Pressure Humidity
    00:00 -3°C° 0 mm 2 mps 586 mmHg 79%
    01:00 -2°C° 0 mm 2 mps 586 mmHg 76%
    02:00 -2°C° 0 mm 2 mps 586 mmHg 76%
    03:00 -2°C° 0 mm 2 mps 586 mmHg 76%
    04:00 0°C° 0 mm 1 mps 586 mmHg 75%
    05:00 0°C° 0 mm 1 mps 586 mmHg 76%
    06:00 0°C° 0 mm 1 mps 586 mmHg 76%
    07:00 0°C° 0 mm 1 mps 586 mmHg 77%
    08:00 +3°C° 0 mm 1 mps 587 mmHg 73%
    09:00 +5°C° 0 mm 1 mps 589 mmHg 70%
    10:00 +8°C° 0 mm 1 mps 590 mmHg 66%
    11:00 +9°C° 0 mm 1 mps 590 mmHg 64%
    12:00 +9°C° 0 mm 1 mps 591 mmHg 62%
    13:00 +10°C° 0 mm 1 mps 591 mmHg 59%
    14:00 +9°C° 0 mm 1 mps 590 mmHg 62%
    15:00 +9°C° 0 mm 1 mps 590 mmHg 66%
    16:00 +8°C° 0 mm 1 mps 589 mmHg 69%
    17:00 +6°C° 0 mm 1 mps 589 mmHg 70%
    18:00 +4°C° 0 mm 1 mps 588 mmHg 71%
    19:00 +2°C° 0 mm 1 mps 588 mmHg 73%
    20:00 +2°C° 0 mm 1 mps 588 mmHg 70%
    21:00 +2°C° 0 mm 1 mps 588 mmHg 67%
    22:00 +2°C° 0 mm 1 mps 588 mmHg 64%
    23:00 +2°C° 0 mm 1 mps 588 mmHg 63%

    26 October, Thursday

    Time Temperature Precipitation Wind Pressure Humidity
    00:00 +2°C° 0 mm 1 mps 588 mmHg 61%
    01:00 +2°C° 0 mm 1 mps 588 mmHg 60%
    02:00 +2°C° 0 mm 1 mps 588 mmHg 59%
    03:00 +2°C° 0 mm 1 mps 587 mmHg 58%
    04:00 +2°C° 0 mm 1 mps 587 mmHg 57%
    05:00 +2°C° 0 mm 1 mps 587 mmHg 56%
    06:00 +2°C° 0 mm 1 mps 587 mmHg 55%
    07:00 +2°C° 0 mm 1 mps 587 mmHg 54%
    08:00 +4°C° 0 mm 1 mps 588 mmHg 54%
    09:00 +7°C° 0 mm 1 mps 590 mmHg 53%
    10:00 +9°C° 0 mm 0 mps 591 mmHg 52%
    11:00 +11°C° 0 mm 1 mps 591 mmHg 51%
    12:00 +12°C° 0 mm 1 mps 591 mmHg 49%
    13:00 +12°C° 0 mm 1 mps 592 mmHg 48%
    14:00 +11°C° 0 mm 1 mps 591 mmHg 52%
    15:00 +10°C° 0 mm 1 mps 590 mmHg 56%
    16:00 +9°C° 0 mm 1 mps 590 mmHg 60%
    17:00 +7°C° 0 mm 1 mps 589 mmHg 63%
    18:00 +6°C° 0 mm 1 mps 588 mmHg 65%
    19:00 +4°C° 0 mm 1 mps 587 mmHg 68%
    20:00 +3°C° 0 mm 1 mps 587 mmHg 66%
    21:00 +3°C° 0 mm 1 mps 587 mmHg 64%
    22:00 +3°C° 0 mm 1 mps 587 mmHg 62%
    23:00 +3°C° 0 mm 1 mps 586 mmHg 60%

    27 October, Friday

    Time Temperature Precipitation Wind Pressure Humidity
    00:00 +3°C° 0 mm 1 mps 586 mmHg 59%
    01:00 +3°C° 0 mm 1 mps 586 mmHg 57%
    02:00 +2°C° 0 mm 2 mps 585 mmHg 58%
    03:00 +1°C° 0 mm 2 mps 585 mmHg 58%
    04:00 +1°C° 0 mm 2 mps 584 mmHg 59%
    05:00 +1°C° 0 mm 2 mps 584 mmHg 61%
    06:00 +1°C° 0 mm 2 mps 584 mmHg 62%
    07:00 +1°C° 0 mm 2 mps 584 mmHg 64%
    08:00 +3°C° 0 mm 2 mps 584 mmHg 62%
    09:00 +5°C° 0 mm 2 mps 585 mmHg 59%
    10:00 +8°C° 0 mm 2 mps 586 mmHg 57%
    11:00 +8°C° 0 mm 2 mps 586 mmHg 56%
    12:00 +8°C° 0 mm 2 mps 585 mmHg 54%
    13:00 +9°C° 0 mm 3 mps 585 mmHg 53%
    14:00 +8°C° 0.1 mm 3 mps 585 mmHg 58%
    15:00 +7°C° 0.1 mm 2 mps 584 mmHg 62%
    16:00 +6°C° 0.1 mm 2 mps 583 mmHg 67%
    17:00 +3°C° 0.5 mm 3 mps 583 mmHg 71%
    18:00 +2°C° 0.5 mm 3 mps 583 mmHg 76%
    19:00 +1°C° 0.5 mm 3 mps 583 mmHg 80%
    20:00 0°C° 0.1 mm 3 mps 583 mmHg 82%
    21:00 -1°C° 0.1 mm 3 mps 583 mmHg 83%
    22:00 -1°C° 0.1 mm 3 mps 583 mmHg 85%
    23:00 -2°C° 0 mm 3 mps 583 mmHg 85%
    Show more